sat.trackr.live / text

‹ back to catalog

STARLINK-32030

NORAD 61513 · 2024-183E

PAYLOAD ACTIVE UNKNOWN

§ Identity

Operator
Country
US
Launch date
2024-10-15
Launch site
AFETR
Launch vehicle
Mass (kg)
RCS (m²)

Purposes: comms

External: N2YO · Heavens-Above · Gunter

§ Orbital elements

Epoch: 2026-09-21T02:48:03.912480Z

Period
93.85 min
Inclination
53.1603°
Eccentricity
0.0000989
Mean motion
15.34392526 rev/d
Perigee alt
462.0 km
Apogee alt
463.4 km
Semi-major
6,840.9 km
B*
-3.0146e-5
RAAN
312.5601°
Arg perigee
75.5731°
Mean anomaly
284.5381°
Rev number
10,960

§ Raw data

STARLINK-320301 61513U 24183E   26264.11671195 -.00001394  00000+0 -30146-4 0  99912 61513  53.1603 312.5601 0000989  75.5731 284.5381 15.34392526109605

JSON: /api/v1/satellites/61513 · /tle

For live sub-satellite position, see the globe view (requires WebGL).

§ Visibility from observer

Set your observer location to see the next 7 days of passes ≥ 10°. The values pass through the URL so the page stays shareable.

No JS? Fill the form by hand. The geolocation button needs JavaScript.